Orbital Elements at Epoch 2459200.5 (2020-Dec-17.0) TDB
Reference: JPL 36 (heliocentric ecliptic J2000)
Element | Value | Uncertainty (1-sigma) | Units |
e | .08503370922539513 | 2.5185e-08 | |
a | 2.195292506294848 | 5.1103e-09 | au |
q | 2.008618641649883 | 5.381e-08 | au |
i | 1.980850874340182 | 2.2693e-06 | deg |
node | 92.91816304072304 | 9.9879e-05 | deg |
peri | 147.3325669791416 | 0.00010173 | deg |
M | 117.6468122516083 | 1.968e-05 | deg |
tp | 2458812.247123032118 (2019-Nov-24.74712303) | 6.4885e-05 | TDB |
period | 1188.056293522962 3.25 | 4.1484e-06 1.136e-08 | d yr |
n | .3030159445833046 | 1.0581e-09 | deg/d |
Q | 2.381966370939813 | 5.5448e-09 | au |
|
| | Orbit Determination Parameters
Additional Information
|